Location: Honolulu
(21.3069°N, 157.8583°W)
Time: 11:18:08
(UTC-10:00)

Transit 2A Rocket - Visible Passes

Search period start: 11 April 2026 00:00
Search period end: 21 April 2026 00:00
Orbit: 585 x 898 km, 66.7° (Epoch: 11 April)

Date Brightness Start Highest point End Pass type
(mag) Time Alt. Az. Time Alt. Az. Time Alt. Az.
11 Apr 7.7 03:06:27 15° NNE 03:06:27 15° NNE 03:07:27 10° NNE visible
12 Apr 7.6 04:01:51 10° NNW 04:01:51 10° NNW 04:02:00 10° NNW visible
13 Apr 7.8 03:17:30 11° N 03:17:30 11° N 03:17:43 10° N visible
